Date,TemperatureHighF,TemperatureAvgF,TemperatureLowF,DewpointHighF,DewpointAvgF,DewpointLowF,HumidityHigh,HumidityAvg,HumidityLow,PressureMaxIn,PressureMinIn,WindSpeedMaxMPH,WindSpeedAvgMPH,GustSpeedMaxMPH,PrecipitationSumIn
2014-1-1,31,26,20,18,13,8,67,59,51,30.42,30.27,6,2,13,0.00
2014-1-2,28,22,14,21,18,11,88,82,66,30.28,29.72,7,3,18,0.00
2014-1-3,15,9,2,10,3,-3,87,77,61,30.49,29.69,5,3,16,0.00
2014-1-4,24,11,-3,10,3,-7,86,71,46,30.56,30.32,4,1,10,0.02
2014-1-5,43,20,5,42,17,2,97,89,78,30.35,29.79,3,0,8,0.26
2014-1-6,54,42,20,53,36,4,98,82,46,29.78,29.41,10,4,19,0.65
2014-1-7,20,8,4,4,-8,-13,55,47,39,30.38,29.70,13,7,22,0.00
2014-1-8,21,13,6,6,0,-6,64,55,45,30.57,30.38,6,3,13,0.00
2014-1-9,30,22,16,14,11,5,82,61,44,30.67,30.50,4,1,8,0.00
2014-1-10,33,28,17,32,25,13,96,88,80,30.62,30.24,2,0,3,0.08
2014-1-11,56,49,33,56,48,32,98,97,92,30.24,29.33,8,2,19,0.55
2014-1-12,52,42,31,51,32,27,94,68,56,30.07,29.39,9,4,21,0.01
2014-1-13,49,39,28,39,33,25,92,77,61,30.16,29.91,5,2,13,0.00
2014-1-14,46,44,39,44,41,36,97,91,79,29.91,29.68,4,1,7,0.42
2014-1-15,38,36,32,37,34,30,96,95,95,29.92,29.85,1,0,2,0.00
2014-1-16,38,36,30,36,32,26,96,87,78,29.96,29.86,4,1,10,0.00
2014-1-17,43,32,24,31,27,22,95,81,58,30.00,29.91,5,1,13,0.00
2014-1-18,36,32,27,32,27,20,95,84,71,29.90,29.67,8,2,15,0.06
2014-1-19,35,28,24,24,20,17,78,71,63,29.85,29.66,6,3,15,0.00
2014-1-20,41,36,28,30,24,14,70,63,56,29.91,29.59,7,3,16,0.05
2014-1-21,28,16,9,14,9,4,88,74,50,30.04,29.86,8,3,16,0.00
2014-1-22,15,8,1,3,-2,-7,77,61,50,30.01,29.82,7,3,20,0.00
2014-1-23,19,10,0,4,0,-5,82,63,47,30.30,30.01,8,2,14,0.00
2014-1-24,19,13,8,3,0,-4,65,55,38,30.39,30.09,8,4,17,0.00
2014-1-25,25,21,16,20,11,2,90,66,52,30.09,29.46,7,4,21,0.00
2014-1-26,24,19,14,16,8,0,90,63,44,29.90,29.47,8,3,15,0.00
2014-1-27,40,28,18,28,15,-1,83,61,34,30.09,29.63,10,3,19,0.05
2014-1-28,18,14,10,0,-4,-8,56,43,33,30.38,30.09,7,3,15,0.00
2014-1-29,23,17,12,9,1,-4,86,52,32,30.30,30.09,6,3,14,0.00
2014-1-30,29,19,9,11,5,-1,79,54,37,30.48,30.22,4,2,12,0.00
2014-1-31,38,30,17,21,14,10,79,54,42,30.25,30.11,5,1,9,0.00
2014-2-1,44,34,26,29,24,21,81,67,46,30.35,30.05,5,1,14,0.01
2014-2-2,48,40,30,39,34,29,95,80,58,30.11,29.92,3,1,7,0.00
2014-2-3,39,31,26,34,27,21,93,87,69,30.33,30.10,6,1,14,0.00
2014-2-4,34,25,14,24,19,11,92,80,60,30.50,30.28,4,1,8,0.25
2014-2-5,32,29,27,31,27,23,95,92,77,30.28,29.66,6,2,14,0.00
2014-2-6,27,22,17,24,18,15,91,81,64,30.30,29.99,5,1,10,0.01
2014-2-7,33,25,15,18,15,12,91,67,44,30.34,30.21,5,2,11,0.01
2014-2-8,28,23,15,13,6,1,71,49,34,30.34,30.15,5,1,11,0.00
2014-2-9,29,21,9,22,12,4,91,71,49,30.21,30.00,4,1,9,0.00
2014-2-10,28,23,15,20,12,8,91,64,47,30.29,30.00,8,3,14,0.00
2014-2-11,25,17,8,8,6,3,82,62,44,30.50,30.28,6,1,11,0.00
2014-2-12,26,16,7,12,4,0,76,60,34,30.59,30.33,5,2,12,0.00
2014-2-13,34,29,19,32,27,12,95,92,72,30.33,29.01,10,4,29,0.00
2014-2-14,40,34,29,30,27,24,96,75,53,29.78,29.02,10,4,19,0.06
2014-2-15,37,31,26,29,25,16,93,79,63,29.80,29.60,7,2,17,0.03
2014-2-16,28,23,19,17,13,10,79,64,51,30.10,29.73,9,5,17,0.00
2014-2-17,32,22,15,11,6,0,74,53,29,30.39,30.10,6,2,12,0.00
2014-2-18,37,29,18,33,23,6,92,79,49,30.35,29.95,5,2,10,0.14
2014-2-19,42,32,20,38,29,18,96,89,72,30.12,29.71,9,1,22,0.48
2014-2-20,50,39,28,35,29,21,94,68,34,30.26,29.97,7,2,16,0.04
2014-2-21,45,39,32,44,38,31,97,96,93,30.06,29.62,10,2,18,0.10
2014-2-22,53,41,29,33,27,22,96,63,31,30.05,29.92,7,2,16,0.00
2014-2-23,52,42,29,32,29,25,90,62,41,30.02,29.83,4,1,10,0.00
2014-2-24,44,33,24,29,15,8,64,49,37,30.07,29.80,9,5,21,0.00
2014-2-25,31,24,19,19,11,8,71,58,49,30.08,29.92,8,3,14,0.00
2014-2-26,28,21,12,21,8,-3,86,60,33,29.98,29.83,8,2,17,0.00
2014-2-27,30,17,6,14,4,-10,79,57,33,30.08,29.63,11,3,22,0.00
2014-2-28,22,14,7,3,-3,-10,71,47,33,30.45,30.09,9,3,17,0.00
2014-3-1,36,22,6,21,10,1,80,62,37,30.45,30.15,5,1,11,0.00
2014-3-2,38,34,28,24,20,16,61,57,53,30.16,30.00,3,1,9,0.00
2014-3-3,28,19,12,16,4,-3,68,51,42,30.35,30.03,8,3,18,0.00
2014-3-4,28,20,7,12,4,-4,69,50,35,30.44,30.26,3,1,8,0.00
2014-3-5,32,28,21,14,12,8,67,52,38,30.49,30.23,8,2,17,0.00
2014-3-6,30,20,11,10,4,-3,71,51,29,30.65,30.48,6,2,15,0.00
2014-3-7,37,27,16,26,17,8,74,67,60,30.52,29.94,6,2,12,0.00
2014-3-8,53,41,29,32,29,26,92,63,39,29.94,29.78,8,2,13,0.00
2014-3-9,41,37,32,29,20,13,71,51,34,30.02,29.89,7,3,14,0.00
2014-3-10,49,40,32,32,26,16,77,59,46,29.94,29.62,5,2,10,0.00
2014-3-11,62,47,33,38,32,29,85,59,31,29.72,29.56,6,1,13,0.00
2014-3-12,53,44,30,46,37,28,94,78,69,29.70,29.02,8,1,13,0.21
2014-3-13,30,21,16,27,6,1,88,53,32,30.07,29.17,12,7,23,0.00
2014-3-14,44,27,16,29,11,2,71,51,32,30.23,29.92,9,3,21,0.00
2014-3-15,56,46,38,33,28,21,79,53,32,30.00,29.76,11,4,18,0.00
2014-3-16,41,32,27,24,10,5,54,41,30,30.19,29.99,9,4,17,0.00
2014-3-17,33,25,20,13,5,-3,61,42,31,30.16,30.05,7,3,16,0.00
2014-3-18,42,31,19,24,8,1,77,41,18,30.32,30.14,6,2,14,0.00
2014-3-19,42,34,23,36,28,20,95,82,63,30.35,29.86,7,2,16,0.62
2014-3-20,53,43,37,42,32,24,97,69,38,29.89,29.72,9,4,18,0.07
2014-3-21,48,41,32,25,22,20,66,47,34,30.06,29.88,9,4,20,0.00
2014-3-22,61,44,29,38,29,22,77,56,31,30.07,29.75,9,3,18,0.00
2014-3-23,39,35,26,26,17,6,61,48,33,30.12,29.97,8,3,14,0.00
2014-3-24,33,26,19,9,6,4,59,44,31,30.24,30.10,6,3,15,0.00
2014-3-25,38,28,17,18,12,8,77,53,33,30.18,29.88,5,1,13,0.00
2014-3-26,34,32,30,18,14,6,59,50,32,29.87,29.75,13,3,23,0.00
2014-3-27,43,29,20,26,11,4,64,49,25,30.42,30.24,7,3,14,0.00
2014-3-28,50,42,32,48,36,20,95,79,50,30.27,29.98,3,1,9,0.08
2014-3-29,48,45,40,46,43,38,97,91,79,30.21,29.72,6,2,18,1.23
2014-3-30,46,43,38,45,41,35,96,92,86,29.72,29.50,9,4,21,0.70
2014-3-31,54,41,34,36,33,27,91,73,49,30.07,29.69,11,4,22,0.18
2014-4-1,58,46,36,35,30,27,74,56,38,30.13,29.98,7,3,16,0.00
2014-4-2,55,44,36,43,38,32,93,78,58,30.14,30.04,4,1,10,0.00
2014-4-3,64,51,38,40,28,13,93,50,15,30.14,30.00,6,1,10,0.02
2014-4-4,48,41,37,41,35,30,94,81,60,30.09,29.77,7,3,20,0.16
2014-4-5,51,43,38,42,33,23,96,69,44,30.05,29.72,10,4,19,0.01
2014-4-6,60,45,33,29,24,18,69,46,21,30.21,30.05,7,2,18,0.00
2014-4-7,51,43,35,45,33,24,94,70,35,30.22,29.72,6,2,19,0.13
2014-4-8,65,53,47,56,44,34,98,76,47,29.72,29.39,10,4,20,0.22
2014-4-9,60,47,34,37,30,17,91,57,30,30.03,29.61,10,3,19,0.00
2014-4-10,59,47,30,37,26,16,71,46,29,30.21,30.02,9,3,20,0.00
2014-4-11,72,60,52,51,42,32,90,54,40,30.04,29.93,7,3,14,0.01
2014-4-12,72,56,42,49,40,30,96,61,22,30.23,30.00,5,2,12,0.01
2014-4-13,75,60,44,56,48,37,82,67,49,30.21,29.97,7,3,17,0.00
2014-4-14,73,65,55,58,55,52,89,70,55,30.01,29.84,8,4,20,0.00
2014-4-15,60,54,33,59,52,32,96,93,82,29.89,29.53,9,4,25,0.50
2014-4-16,46,37,29,32,21,16,95,55,30,30.58,29.89,9,3,18,0.18
2014-4-17,48,39,31,30,22,12,78,51,23,30.74,30.58,8,2,14,0.00
2014-4-18,46,38,30,34,29,25,90,71,49,30.61,30.26,4,1,11,0.00
2014-4-19,65,51,36,38,30,22,89,50,20,30.36,30.21,7,2,18,0.00
2014-4-20,59,49,40,32,27,18,68,44,24,30.49,30.33,7,2,16,0.00
2014-4-21,68,50,31,42,30,13,89,54,15,30.33,29.88,6,2,13,0.00
2014-4-22,70,56,42,54,46,38,90,71,44,29.88,29.50,6,2,15,0.02
2014-4-23,58,51,44,51,39,31,93,66,45,29.80,29.47,11,5,25,0.00
2014-4-24,61,50,40,32,21,15,66,35,17,30.01,29.80,11,5,21,0.00
2014-4-25,64,50,34,38,26,20,71,41,22,30.05,29.79,7,2,19,0.00
2014-4-26,64,50,44,48,43,37,95,79,42,29.87,29.70,6,2,14,0.73
2014-4-27,56,50,42,45,37,34,92,63,45,30.12,29.87,7,2,17,0.00
2014-4-28,64,53,39,40,36,32,85,54,31,30.14,30.00,8,2,18,0.00
2014-4-29,50,46,42,41,38,36,89,74,63,30.44,30.14,9,4,23,0.04
2014-4-30,48,43,40,46,40,37,95,92,84,30.43,30.00,7,4,20,0.72
2014-5-1,78,62,48,62,54,46,98,80,34,30.00,29.66,6,2,14,0.07
2014-5-2,67,59,50,57,42,36,87,57,34,29.84,29.70,7,3,14,0.00
2014-5-3,67,56,44,51,42,38,93,64,36,29.87,29.72,6,2,14,0.03
2014-5-4,64,56,49,50,39,27,93,58,28,29.76,29.61,10,4,21,0.00
2014-5-5,68,57,48,38,34,26,67,44,24,29.89,29.76,8,4,18,0.00
2014-5-6,67,56,45,40,34,26,75,46,28,30.07,29.87,8,2,15,0.00
2014-5-7,70,55,41,40,33,28,79,47,22,30.23,30.07,5,2,13,0.00
2014-5-8,57,53,49,55,51,40,96,90,66,30.18,30.09,2,0,7,0.36
2014-5-9,61,58,54,60,57,53,97,96,91,30.20,30.00,4,1,10,0.23
2014-5-10,80,66,58,66,61,58,99,84,58,30.00,29.81,6,2,14,0.06
2014-5-11,80,67,54,60,47,35,93,54,22,30.07,29.86,5,2,14,0.10
2014-5-12,83,67,49,62,52,45,89,63,29,30.11,30.01,6,1,13,0.00
2014-5-13,69,63,54,61,48,38,94,60,35,30.28,30.00,5,2,14,0.00
2014-5-14,72,57,48,58,50,43,92,77,55,30.31,30.22,5,1,15,0.00
2014-5-15,71,64,59,67,63,56,97,94,86,30.25,30.09,4,1,14,0.26
2014-5-16,69,67,64,66,65,60,97,94,90,30.08,29.76,7,4,23,1.09
2014-5-17,69,59,51,60,48,41,96,69,37,30.11,29.82,3,1,8,0.01
2014-5-18,64,55,43,48,40,36,94,61,37,30.19,30.10,5,1,13,0.00
2014-5-19,70,56,39,51,40,34,92,60,28,30.21,30.05,7,1,14,0.05
2014-5-20,78,61,43,49,43,35,97,59,22,30.12,29.95,6,1,16,0.00
2014-5-21,75,66,57,54,50,43,81,58,34,29.98,29.88,3,1,10,0.00
2014-5-22,64,59,57,60,56,52,96,90,66,29.88,29.80,4,1,11,0.17
2014-5-23,69,60,56,60,57,55,97,90,66,29.93,29.84,3,1,12,0.52
2014-5-24,67,59,55,59,55,53,97,88,63,30.07,29.91,5,1,10,0.06
2014-5-25,80,66,54,57,53,46,98,70,30,30.09,30.00,3,1,7,0.01
2014-5-26,87,71,54,57,54,49,93,60,28,30.04,29.86,3,1,10,0.00
2014-5-27,87,75,60,65,60,55,88,61,39,29.88,29.73,3,1,8,0.00
2014-5-28,71,56,51,62,52,45,93,85,72,30.18,29.79,5,2,13,0.00
2014-5-29,67,56,45,48,44,38,91,67,38,30.22,30.14,4,2,11,0.00
2014-5-30,77,62,51,57,50,44,87,66,35,30.15,29.97,6,1,25,0.03
2014-5-31,70,61,52,57,50,48,89,69,47,30.29,30.07,7,2,19,0.04
2014-6-1,78,63,47,52,44,36,94,56,23,30.35,30.24,4,1,11,0.00
2014-6-2,82,66,48,57,52,44,88,62,40,30.26,30.00,4,1,12,0.00
2014-6-3,87,71,58,68,63,55,94,76,50,30.02,29.80,4,1,12,0.26
2014-6-4,81,70,61,65,62,58,96,78,50,29.86,29.73,4,1,11,0.13
2014-6-5,74,66,60,62,59,52,96,82,57,29.79,29.64,4,1,13,0.47
2014-6-6,76,65,56,55,52,48,82,62,45,29.93,29.78,3,1,12,0.00
2014-6-7,83,67,51,62,54,47,87,66,39,30.00,29.90,4,1,10,0.00
2014-6-8,87,71,55,62,55,49,83,61,33,29.95,29.85,3,1,11,0.00
2014-6-9,66,64,62,59,57,54,81,78,74,29.97,29.89,2,0,6,0.50
2014-6-10,75,68,62,68,62,56,83,81,78,29.99,29.92,4,1,9,0.00
2014-6-11,69,64,60,62,57,54,82,80,76,30.11,29.99,4,1,15,0.03
2014-6-12,70,63,58,64,57,51,83,80,77,30.09,29.93,2,1,9,0.00
2014-6-13,78,68,64,71,62,58,87,81,77,29.93,29.72,4,1,9,0.84
2014-6-14,73,66,56,64,57,49,85,72,51,30.01,29.77,4,1,9,0.01
2014-6-15,80,66,52,61,55,48,85,69,45,30.09,30.01,5,1,14,0.00
2014-6-16,84,70,55,61,56,50,84,65,43,30.16,30.03,4,1,11,0.00
2014-6-17,91,76,63,71,65,57,82,69,37,30.06,29.85,3,1,11,0.00
2014-6-18,87,81,72,70,66,61,78,62,44,29.95,29.78,4,2,11,0.00
2014-6-19,77,70,64,68,63,57,82,80,72,30.00,29.92,4,0,9,0.39
2014-6-20,79,67,54,59,51,44,83,59,30,30.00,29.88,3,1,12,0.00
2014-6-21,78,66,53,55,50,46,82,58,37,29.98,29.87,3,1,8,0.00
2014-6-22,80,68,56,59,55,51,82,65,43,30.02,29.92,3,1,10,0.00
2014-6-23,83,69,54,61,55,48,82,65,39,30.14,30.03,4,1,11,0.00
2014-6-24,82,71,62,64,59,56,81,67,44,30.15,30.00,5,2,14,0.00
2014-6-25,84,75,66,72,67,59,80,76,63,30.01,29.82,5,2,17,0.00
2014-6-26,84,76,69,70,66,62,81,71,58,29.96,29.79,4,1,12,0.34
2014-6-27,84,73,65,66,60,52,81,67,33,30.21,29.97,4,1,10,0.00
2014-6-28,87,72,58,64,58,50,81,63,30,30.26,30.20,3,1,9,0.00
2014-6-29,84,71,59,66,59,52,81,66,47,30.25,30.11,4,1,11,0.00
2014-6-30,86,73,61,68,62,55,81,68,46,30.12,29.93,4,1,12,0.00
2014-7-1,88,78,67,73,68,60,80,72,59,29.95,29.79,4,1,13,0.00
2014-7-2,90,79,72,77,69,64,80,73,56,29.94,29.81,9,2,24,1.34
2014-7-3,88,76,68,77,68,62,82,78,68,30.03,29.85,5,1,18,1.50
2014-7-4,72,68,64,65,62,56,84,81,71,29.98,29.88,4,1,12,0.09
2014-7-5,81,71,61,56,53,46,74,55,34,30.12,29.98,4,2,13,0.00
2014-7-6,86,73,56,61,56,51,83,59,36,30.08,29.90,3,1,12,0.00
2014-7-7,91,80,72,69,66,60,76,62,44,29.91,29.70,4,2,14,0.00
2014-7-8,92,79,69,73,68,62,82,70,49,29.84,29.64,5,2,17,0.18
2014-7-9,88,77,69,71,66,62,81,71,43,29.94,29.74,4,1,11,0.05
2014-7-10,83,73,65,65,62,58,82,69,44,30.13,29.93,3,1,10,0.00
2014-7-11,85,75,65,64,60,53,82,62,35,30.20,30.12,3,1,9,0.00
2014-7-12,87,74,63,66,62,57,82,67,44,30.22,30.11,4,1,13,0.00
2014-7-13,82,75,69,72,67,62,81,78,69,30.11,29.87,6,2,13,0.02
2014-7-14,82,74,70,74,68,64,82,80,76,29.91,29.79,4,1,19,2.58
2014-7-15,83,74,70,75,68,64,83,81,76,29.82,29.72,3,1,8,0.29
2014-7-16,81,71,64,66,63,57,85,75,50,29.87,29.73,6,1,14,0.01
2014-7-17,80,69,59,66,60,54,85,72,52,30.10,29.87,2,0,7,0.00
2014-7-18,80,68,56,63,56,51,84,68,38,30.22,30.10,4,1,10,0.00
2014-7-19,77,68,60,64,60,55,84,75,57,30.24,30.17,2,0,8,0.00
2014-7-20,79,69,62,64,59,55,84,71,44,30.18,30.09,5,1,14,0.00
2014-7-21,85,71,58,66,60,53,84,70,45,30.19,30.12,2,1,8,0.00
2014-7-22,89,76,64,71,66,59,83,72,53,30.16,30.01,3,1,13,0.00
2014-7-23,90,78,70,75,70,64,82,74,59,30.01,29.75,4,1,11,0.04
2014-7-24,80,73,65,67,62,58,83,70,50,29.90,29.78,4,1,12,0.00
2014-7-25,81,70,59,64,57,52,84,66,37,30.02,29.91,3,1,7,0.00
2014-7-26,80,70,62,67,62,56,83,75,60,29.99,29.88,3,0,7,0.00
2014-7-27,87,76,67,72,67,62,82,75,53,29.89,29.64,3,1,12,0.00
2014-7-28,83,74,66,70,65,59,83,75,53,29.66,29.48,4,2,13,0.28
2014-7-29,74,67,60,59,56,53,83,68,48,29.96,29.66,3,1,8,0.00
2014-7-30,80,67,54,63,55,49,84,67,37,30.04,29.95,3,0,7,0.00
2014-7-31,84,70,57,65,60,52,84,72,46,30.13,30.03,3,1,12,0.04
2014-8-1,84,71,63,72,64,58,83,80,64,30.20,30.13,3,0,7,0.13
2014-8-2,74,67,62,65,61,57,84,81,70,30.19,30.09,4,1,13,0.12
2014-8-3,76,67,62,66,61,57,84,81,70,30.12,30.02,2,0,7,0.05
2014-8-4,86,74,65,69,64,60,83,73,49,30.05,29.99,3,1,7,0.00
2014-8-5,89,76,63,69,63,57,83,67,36,30.03,29.89,5,1,10,0.00
2014-8-6,83,72,64,65,62,59,83,73,48,29.90,29.81,5,1,19,0.00
2014-8-7,82,68,57,60,56,52,84,66,37,30.00,29.88,5,1,12,0.00
2014-8-8,81,67,54,63,56,49,84,68,42,30.08,30.00,4,1,9,0.00
2014-8-9,84,70,56,63,57,51,84,67,38,30.12,30.06,3,0,10,0.00
2014-8-10,87,72,58,66,58,53,83,66,36,30.14,30.07,4,0,8,0.00
2014-8-11,86,72,60,64,59,55,83,66,37,30.13,30.08,4,1,13,0.00
2014-8-12,76,72,67,68,65,61,82,79,70,30.08,29.88,4,1,13,0.03
2014-8-13,80,71,65,70,64,60,83,79,64,29.88,29.63,5,1,18,0.61
2014-8-14,76,68,61,61,55,51,82,65,43,29.88,29.76,3,1,8,0.00
2014-8-15,69,63,53,56,52,48,84,69,53,29.97,29.87,3,1,9,0.00
2014-8-16,78,64,54,60,53,49,84,71,41,30.01,29.90,3,0,9,0.00
2014-8-17,81,69,58,64,58,53,84,69,44,29.90,29.80,3,1,10,0.00
2014-8-18,80,67,55,59,56,50,84,69,43,29.91,29.81,3,0,8,0.00
2014-8-19,82,69,57,63,57,52,84,68,40,29.93,29.86,3,1,9,0.00
2014-8-20,83,72,62,67,62,56,83,71,56,30.02,29.92,3,1,9,0.00
2014-8-21,80,71,66,67,62,59,82,74,59,30.06,29.99,4,1,13,0.12
2014-8-22,76,69,66,63,61,59,83,77,59,30.06,29.99,3,1,9,0.03
2014-8-23,75,68,64,63,61,58,83,77,61,30.12,30.03,4,1,10,0.00
2014-8-24,80,68,56,63,58,51,84,73,53,30.15,30.09,5,1,13,0.00
2014-8-25,87,71,56,66,59,51,83,69,44,30.18,30.10,3,0,9,0.00
2014-8-26,89,74,61,68,62,56,83,68,35,30.16,30.05,3,1,11,0.00
2014-8-27,91,76,62,69,64,56,83,69,46,30.06,29.84,5,1,12,0.00
2014-8-28,81,71,63,67,58,51,82,65,37,30.04,29.83,4,1,14,0.00
2014-8-29,79,66,53,57,53,48,84,66,43,30.24,30.04,4,1,11,0.00
2014-8-30,77,67,54,65,58,49,84,74,53,30.27,30.14,4,1,13,0.00
2014-8-31,88,75,71,75,68,64,82,78,62,30.14,29.94,3,1,8,0.17
2014-9-1,87,78,72,74,70,66,83,77,61,29.99,29.90,3,1,8,0.00
2014-9-2,92,81,70,75,69,64,83,69,50,29.92,29.75,4,1,12,0.00
2014-9-3,85,76,65,69,61,57,81,63,41,30.09,29.77,4,1,11,0.00
2014-9-4,86,72,57,64,59,52,84,65,39,30.19,30.09,4,1,12,0.00
2014-9-5,87,76,65,74,68,59,83,77,60,30.16,29.99,4,1,11,0.00
2014-9-6,91,79,64,76,70,59,83,74,55,29.99,29.79,4,1,11,0.12
2014-9-7,79,68,58,62,56,50,83,69,40,30.19,29.93,4,1,13,0.01
2014-9-8,77,66,56,59,55,52,84,69,45,30.32,30.19,5,1,14,0.00
2014-9-9,72,64,56,62,58,52,84,79,70,30.29,30.15,4,1,15,0.00
2014-9-10,76,65,57,61,57,52,84,76,58,30.15,30.01,3,1,10,0.00
2014-9-11,80,72,63,70,65,58,83,79,71,30.01,29.80,4,1,14,0.00
2014-9-12,74,64,57,60,53,50,83,68,46,30.19,29.94,5,1,12,0.00
2014-9-13,65,59,54,59,53,48,84,80,75,30.20,30.09,4,1,10,0.23
2014-9-14,68,56,48,52,47,42,85,72,41,30.27,30.15,4,1,10,0.01
2014-9-15,71,57,46,53,46,41,85,69,39,30.24,30.08,3,1,8,0.00
2014-9-16,70,59,52,59,52,48,85,79,59,30.07,29.95,3,0,10,0.15
2014-9-17,72,58,45,52,46,41,87,68,39,30.06,29.95,3,0,9,0.00
2014-9-18,75,59,44,53,47,40,86,67,36,30.11,29.96,3,1,9,0.00
2014-9-19,65,56,50,50,45,39,85,69,49,30.39,30.11,5,1,14,0.00
2014-9-20,73,62,50,60,54,46,85,76,61,30.35,30.07,5,1,14,0.00
2014-9-21,74,68,64,68,62,58,84,83,81,30.07,29.60,2,0,6,0.07
2014-9-22,68,62,52,62,50,40,85,66,48,30.15,29.61,4,2,12,0.02
2014-9-23,73,55,41,53,44,37,86,69,40,30.42,30.15,3,0,8,0.00
2014-9-24,70,60,49,55,50,44,86,73,49,30.57,30.42,6,1,13,0.00
2014-9-25,61,59,57,56,53,50,85,81,73,30.48,30.22,4,1,11,0.12
2014-9-26,78,63,51,56,53,47,86,72,43,30.23,30.15,6,1,13,0.01
2014-9-27,84,65,50,62,54,46,86,71,42,30.22,30.15,5,0,11,0.00
2014-9-28,86,67,53,63,57,48,85,72,41,30.17,30.00,3,0,7,0.00
2014-9-29,78,67,59,63,58,54,84,73,52,30.00,29.89,2,0,5,0.00
2014-9-30,67,64,60,61,59,56,85,82,77,30.00,29.91,4,1,9,0.00
2014-10-1,64,61,59,59,56,54,85,84,81,30.08,29.98,4,1,13,0.01
2014-10-2,69,61,57,57,55,53,86,81,66,30.15,30.07,4,1,12,0.00
2014-10-3,69,59,48,55,50,44,86,74,45,30.12,29.85,3,1,13,0.00
2014-10-4,67,60,52,62,55,42,85,81,67,29.85,29.49,3,1,13,0.33
2014-10-5,61,51,43,42,38,35,84,63,38,29.99,29.67,4,1,10,0.24
2014-10-6,68,54,39,52,45,35,87,72,43,30.08,29.99,6,2,18,0.10
2014-10-7,70,65,57,60,56,52,84,73,54,30.07,29.90,4,2,17,0.08
2014-10-8,72,65,59,60,52,42,85,65,40,29.93,29.76,8,2,16,0.08
2014-10-9,67,57,45,45,42,39,86,61,36,30.04,29.92,5,1,13,0.01
2014-10-10,60,53,43,46,43,39,86,69,48,30.13,30.03,2,0,7,0.01
2014-10-11,52,49,44,48,45,39,86,85,83,30.18,30.05,4,1,9,0.01
2014-10-12,63,48,38,44,40,34,89,74,46,30.33,30.18,5,0,10,0.02
2014-10-13,63,54,40,56,48,36,86,81,71,30.35,30.24,2,0,10,0.00
2014-10-14,76,68,61,65,61,56,84,79,67,30.24,30.10,6,2,17,0.02
2014-10-15,76,71,68,68,66,62,84,82,76,30.10,29.84,6,2,18,0.01
2014-10-16,71,67,57,64,61,53,85,81,63,29.83,29.66,4,2,15,0.02
2014-10-17,72,62,56,56,53,51,85,72,51,29.73,29.64,4,1,10,0.01
2014-10-18,68,60,55,56,51,45,85,74,51,29.69,29.54,4,1,10,0.02
2014-10-19,55,50,40,46,36,28,73,60,41,30.05,29.69,6,2,14,0.00
2014-10-20,59,46,35,43,36,30,87,71,46,30.12,29.97,4,1,10,0.01
2014-10-21,64,53,44,54,48,40,86,82,63,29.97,29.84,3,0,10,0.01